This is the latest recevied weather packets stored in our database for station/object G7GQA-4. If no packets are shown the sender has not sent any weather packets the latest 10 day(s).
| Time | Temp. | Humidity | Pressure | Rain* | Wind** | Luminosity | Snow |
|---|---|---|---|---|---|---|---|
| 1778158228 | 17.78° C | 39% | - | 0 mm | - | 420 W/m² | - |
| 1778157628 | 16.67° C | 41% | - | 0 mm | - | 588 W/m² | - |
| 1778157028 | 16.67° C | 41% | - | 0 mm | - | 534 W/m² | - |
| 1778156427 | 16.11° C | 43% | - | 0 mm | - | 848 W/m² | - |
| 1778155828 | 15.56° C | 46% | - | 0 mm | - | 711 W/m² | - |
| 1778155227 | 16.67° C | 47% | - | 0 mm | - | 357 W/m² | - |
| 1778154628 | 16.11° C | 46% | - | 0 mm | - | 786 W/m² | - |
| 1778154028 | 16.67° C | 48% | - | 0 mm | - | 765 W/m² | - |
| 1778153428 | 16.11° C | 51% | - | 0 mm | - | 754 W/m² | - |
| 1778152828 | 15.56° C | 54% | - | 0 mm | - | 742 W/m² | - |
| 1778152227 | 14.44° C | 58% | - | 0 mm | - | 736 W/m² | - |
| 1778151627 | 14.44° C | 59% | - | 0 mm | - | 729 W/m² | - |
| 1778151027 | 14.44° C | 62% | - | 0 mm | - | 724 W/m² | - |
| 1778150427 | 13.33° C | 66% | - | 0 mm | - | 783 W/m² | - |
| 1778149827 | 12.78° C | 66% | - | 0 mm | - | 452 W/m² | - |
| 1778149228 | 12.78° C | 66% | - | 0 mm | - | 420 W/m² | - |
| 1778148627 | 12.78° C | 67% | - | 0 mm | - | 372 W/m² | - |
| 1778148027 | 12.22° C | 68% | - | 0 mm | - | 375 W/m² | - |
| 1778147427 | 11.67° C | 71% | - | 0 mm | - | 368 W/m² | - |
| 1778146827 | 11.11° C | 73% | - | 0 mm | - | 335 W/m² | - |
| 1778146227 | 11.11° C | 74% | - | 0 mm | - | 301 W/m² | - |
| 1778145627 | 10.56° C | 75% | - | 0 mm | - | 301 W/m² | - |
| 1778145028 | 10° C | 78% | - | 0 mm | - | 265 W/m² | - |
| 1778144427 | 10° C | 78% | - | 0 mm | - | 231 W/m² | - |
| 1778143827 | 9.44° C | 80% | - | 0 mm | - | 211 W/m² | - |
* Rain latest hour (hover to see other rain measurements)
** Current wind speed in m/s (hover to see current wind gust speed)